Time,TemperatureF,DewpointF,PressureIn,WindDirection,WindDirectionDegrees,WindSpeedMPH,WindSpeedGustMPH,Humidity,HourlyPrecipIn,Conditions,Clouds,dailyrainin,SolarRadiationWatts/m^2,SoftwareType,DateUTC
2013-01-28 00:04:00,31.2,28.3,29.82,ENE,76,0.0,0.0,89,0.00,,,0.00,0.00,VWS V14.01,2013-01-28 06:04:00,
2013-01-28 00:09:00,31.2,28.6,29.82,ENE,76,0.0,1.0,90,0.00,,,0.00,0.00,VWS V14.01,2013-01-28 06:09:00,
2013-01-28 00:14:00,31.2,28.6,29.82,ENE,76,0.0,1.0,90,0.00,,,0.00,0.00,VWS V14.01,2013-01-28 06:14:00,
2013-01-28 00:19:00,31.2,28.3,29.82,ENE,76,0.0,1.0,89,0.00,,,0.00,0.00,VWS V14.01,2013-01-28 06:19:00,
2013-01-28 00:24:00,31.2,28.3,29.82,ENE,76,0.0,1.0,89,0.00,,,0.00,0.00,VWS V14.01,2013-01-28 06:24:00,
2013-01-28 00:29:00,31.2,28.3,29.82,ENE,76,0.0,2.0,89,0.00,,,0.00,0.00,VWS V14.01,2013-01-28 06:29:00,
2013-01-28 00:34:00,31.2,28.3,29.82,ENE,76,0.0,0.0,89,0.00,,,0.00,0.00,VWS V14.01,2013-01-28 06:34:00,
2013-01-28 00:39:00,31.2,28.3,29.82,ENE,76,0.0,0.0,89,0.00,,,0.00,0.00,VWS V14.01,2013-01-28 06:39:00,
2013-01-28 00:44:00,31.2,28.3,29.81,ENE,76,0.0,0.0,89,0.00,,,0.00,0.00,VWS V14.01,2013-01-28 06:44:00,
2013-01-28 00:49:00,31.3,28.4,29.82,ENE,76,0.0,1.0,89,0.00,,,0.00,0.00,VWS V14.01,2013-01-28 06:49:00,
2013-01-28 00:54:00,31.3,28.4,29.82,ENE,76,0.0,1.0,89,0.00,,,0.00,0.00,VWS V14.01,2013-01-28 06:54:00,
2013-01-28 00:59:00,31.3,28.4,29.82,ENE,76,0.0,1.0,89,0.00,,,0.00,0.00,VWS V14.01,2013-01-28 06:59:00,
2013-01-28 01:04:00,31.3,28.4,29.82,ENE,76,0.0,1.0,89,0.00,,,0.00,0.00,VWS V14.01,2013-01-28 07:04:00,
2013-01-28 01:09:00,31.3,28.4,29.81,ENE,76,0.0,1.0,89,0.00,,,0.00,0.00,VWS V14.01,2013-01-28 07:09:00,
2013-01-28 01:14:00,31.3,28.4,29.81,ENE,76,0.0,1.0,89,0.00,,,0.00,0.00,VWS V14.01,2013-01-28 07:14:00,
2013-01-28 01:19:00,31.3,28.4,29.81,ENE,76,0.0,1.0,89,0.00,,,0.00,0.00,VWS V14.01,2013-01-28 07:19:00,
2013-01-28 01:24:00,31.3,28.4,29.81,ENE,76,0.0,1.0,89,0.00,,,0.00,0.00,VWS V14.01,2013-01-28 07:24:00,
2013-01-28 01:29:00,31.3,28.4,29.81,ENE,76,0.0,1.0,89,0.00,,,0.00,0.00,VWS V14.01,2013-01-28 07:29:00,
2013-01-28 01:34:00,31.3,28.4,29.80,ENE,76,0.0,0.0,89,0.00,,,0.00,0.00,VWS V14.01,2013-01-28 07:34:00,
2013-01-28 01:39:00,31.3,28.4,29.81,ENE,76,0.0,0.0,89,0.00,,,0.00,0.00,VWS V14.01,2013-01-28 07:39:00,
2013-01-28 01:44:00,31.3,28.4,29.80,ENE,76,0.0,0.0,89,0.00,,,0.00,0.00,VWS V14.01,2013-01-28 07:44:00,
2013-01-28 01:49:00,31.3,28.4,29.80,ENE,76,0.0,0.0,89,0.00,,,0.00,0.00,VWS V14.01,2013-01-28 07:49:00,
2013-01-28 01:54:00,31.4,28.5,29.80,ENE,76,0.0,0.0,89,0.00,,,0.00,0.00,VWS V14.01,2013-01-28 07:54:00,
2013-01-28 01:59:00,31.4,28.5,29.81,ENE,76,0.0,0.0,89,0.00,,,0.00,0.00,VWS V14.01,2013-01-28 07:59:00,
2013-01-28 02:04:00,31.4,28.5,29.81,ENE,76,0.0,0.0,89,0.00,,,0.00,0.00,VWS V14.01,2013-01-28 08:04:00,
2013-01-28 02:09:00,31.5,28.6,29.81,ENE,76,0.0,0.0,89,0.00,,,0.00,0.00,VWS V14.01,2013-01-28 08:09:00,
2013-01-28 02:14:00,31.4,28.5,29.81,ENE,76,0.0,0.0,89,0.00,,,0.00,0.00,VWS V14.01,2013-01-28 08:14:00,
2013-01-28 02:19:00,31.5,28.6,29.81,ENE,76,0.0,0.0,89,0.00,,,0.00,0.00,VWS V14.01,2013-01-28 08:19:00,
2013-01-28 02:24:00,31.5,28.6,29.81,ENE,76,0.0,0.0,89,0.00,,,0.00,0.00,VWS V14.01,2013-01-28 08:24:00,
2013-01-28 02:29:00,31.4,28.5,29.81,ENE,76,0.0,0.0,89,0.00,,,0.00,0.00,VWS V14.01,2013-01-28 08:29:00,
2013-01-28 02:34:00,31.4,28.5,29.81,ENE,76,0.0,0.0,89,0.00,,,0.00,0.00,VWS V14.01,2013-01-28 08:34:00,
2013-01-28 02:39:00,31.4,28.5,29.81,ENE,76,0.0,0.0,89,0.00,,,0.00,0.00,VWS V14.01,2013-01-28 08:39:00,
2013-01-28 02:44:00,31.4,28.5,29.81,ENE,76,0.0,0.0,89,0.00,,,0.00,0.00,VWS V14.01,2013-01-28 08:44:00,
2013-01-28 02:49:00,31.4,28.5,29.81,ENE,76,0.0,0.0,89,0.00,,,0.00,0.00,VWS V14.01,2013-01-28 08:49:00,
2013-01-28 02:54:00,31.4,28.5,29.81,ENE,76,0.0,0.0,89,0.00,,,0.00,0.00,VWS V14.01,2013-01-28 08:54:00,
2013-01-28 02:59:00,31.4,28.5,29.81,ENE,76,0.0,0.0,89,0.00,,,0.00,0.00,VWS V14.01,2013-01-28 08:59:00,
2013-01-28 03:04:00,31.3,28.4,29.81,ENE,76,0.0,0.0,89,0.00,,,0.00,0.00,VWS V14.01,2013-01-28 09:04:00,
2013-01-28 03:09:00,31.3,28.4,29.81,ENE,76,0.0,0.0,89,0.00,,,0.00,0.00,VWS V14.01,2013-01-28 09:09:00,
2013-01-28 03:14:00,31.3,28.4,29.81,ENE,76,0.0,0.0,89,0.00,,,0.00,0.00,VWS V14.01,2013-01-28 09:14:00,
2013-01-28 03:19:00,31.3,28.4,29.81,ENE,76,0.0,0.0,89,0.00,,,0.00,0.00,VWS V14.01,2013-01-28 09:19:00,
2013-01-28 03:24:00,31.3,28.4,29.81,ENE,76,0.0,0.0,89,0.00,,,0.00,0.00,VWS V14.01,2013-01-28 09:24:00,
2013-01-28 03:29:00,31.2,28.3,29.81,ENE,76,0.0,0.0,89,0.00,,,0.00,0.00,VWS V14.01,2013-01-28 09:29:00,
2013-01-28 03:34:00,31.2,28.3,29.81,ENE,76,0.0,0.0,89,0.00,,,0.00,0.00,VWS V14.01,2013-01-28 09:34:00,
2013-01-28 03:39:00,31.2,28.3,29.81,ENE,76,0.0,0.0,89,0.00,,,0.00,0.00,VWS V14.01,2013-01-28 09:39:00,
2013-01-28 03:44:00,31.2,28.3,29.81,ENE,76,0.0,0.0,89,0.00,,,0.00,0.00,VWS V14.01,2013-01-28 09:44:00,
2013-01-28 03:49:00,31.2,28.3,29.81,ENE,76,0.0,0.0,89,0.00,,,0.00,0.00,VWS V14.01,2013-01-28 09:49:00,
2013-01-28 03:54:00,31.2,28.3,29.81,ENE,76,0.0,0.0,89,0.00,,,0.00,0.00,VWS V14.01,2013-01-28 09:54:00,
2013-01-28 03:59:00,31.2,28.3,29.81,ENE,76,0.0,0.0,89,0.00,,,0.00,0.00,VWS V14.01,2013-01-28 09:59:00,
2013-01-28 04:04:00,31.2,28.3,29.81,ENE,76,0.0,0.0,89,0.00,,,0.00,0.00,VWS V14.01,2013-01-28 10:04:00,
2013-01-28 04:09:00,31.1,28.2,29.82,ENE,76,0.0,0.0,89,0.00,,,0.00,0.00,VWS V14.01,2013-01-28 10:09:00,
2013-01-28 04:14:00,31.2,28.3,29.82,ENE,76,0.0,0.0,89,0.00,,,0.00,0.00,VWS V14.01,2013-01-28 10:14:00,
2013-01-28 04:19:00,31.1,28.2,29.82,ENE,76,0.0,0.0,89,0.00,,,0.00,0.00,VWS V14.01,2013-01-28 10:19:00,
2013-01-28 04:24:00,31.1,28.2,29.82,ENE,76,0.0,0.0,89,0.00,,,0.00,0.00,VWS V14.01,2013-01-28 10:24:00,
2013-01-28 04:29:00,31.1,28.2,29.82,ENE,76,0.0,0.0,89,0.00,,,0.00,0.00,VWS V14.01,2013-01-28 10:29:00,
2013-01-28 04:34:00,31.1,28.2,29.82,ENE,76,0.0,0.0,89,0.00,,,0.00,0.00,VWS V14.01,2013-01-28 10:34:00,
2013-01-28 04:39:00,31.1,28.2,29.82,ENE,76,0.0,1.0,89,0.00,,,0.00,0.00,VWS V14.01,2013-01-28 10:39:00,
2013-01-28 04:44:00,31.1,28.2,29.83,ENE,76,0.0,1.0,89,0.00,,,0.00,0.00,VWS V14.01,2013-01-28 10:44:00,
2013-01-28 04:49:00,31.1,28.2,29.83,ENE,76,0.0,1.0,89,0.00,,,0.00,0.00,VWS V14.01,2013-01-28 10:49:00,
2013-01-28 04:54:00,31.1,28.2,29.83,ENE,76,0.0,1.0,89,0.00,,,0.00,0.00,VWS V14.01,2013-01-28 10:54:00,
2013-01-28 04:59:00,31.0,28.1,29.83,ENE,76,0.0,0.0,89,0.00,,,0.00,0.00,VWS V14.01,2013-01-28 10:59:00,
2013-01-28 05:04:00,31.1,28.2,29.83,North,11,1.0,1.0,89,0.00,,,0.00,0.00,VWS V14.01,2013-01-28 11:04:00,
2013-01-28 05:09:00,31.1,28.2,29.83,NNW,330,0.0,3.0,89,0.00,,,0.00,0.00,VWS V14.01,2013-01-28 11:09:00,
2013-01-28 05:14:00,31.1,28.2,29.83,NNW,330,0.0,3.0,89,0.00,,,0.00,0.00,VWS V14.01,2013-01-28 11:14:00,
2013-01-28 05:19:00,31.1,28.2,29.83,NW,322,1.0,3.0,89,0.00,,,0.00,0.00,VWS V14.01,2013-01-28 11:19:00,
2013-01-28 05:25:00,31.1,28.2,29.83,NW,322,0.0,3.0,89,0.00,,,0.00,0.00,VWS V14.01,2013-01-28 11:25:00,
2013-01-28 05:30:00,31.1,28.2,29.83,NW,322,0.0,0.0,89,0.00,,,0.00,0.00,VWS V14.01,2013-01-28 11:30:00,
2013-01-28 05:35:00,31.1,28.2,29.83,NW,321,2.0,2.0,89,0.00,,,0.00,0.00,VWS V14.01,2013-01-28 11:35:00,
2013-01-28 05:40:00,31.1,28.2,29.83,NW,319,1.0,3.0,89,0.00,,,0.00,0.00,VWS V14.01,2013-01-28 11:40:00,
2013-01-28 05:45:00,31.1,28.2,29.83,NW,319,2.0,3.0,89,0.00,,,0.00,0.00,VWS V14.01,2013-01-28 11:45:00,
2013-01-28 05:50:00,31.1,28.2,29.83,NW,317,1.0,3.0,89,0.00,,,0.00,0.00,VWS V14.01,2013-01-28 11:50:00,
2013-01-28 05:55:00,31.1,28.2,29.84,WNW,303,1.0,3.0,89,0.00,,,0.00,0.00,VWS V14.01,2013-01-28 11:55:00,
2013-01-28 06:00:00,31.1,28.2,29.83,WNW,303,1.0,1.0,89,0.00,,,0.00,0.00,VWS V14.01,2013-01-28 12:00:00,
2013-01-28 06:05:00,31.1,28.2,29.83,WNW,303,1.0,2.0,89,0.00,,,0.00,0.00,VWS V14.01,2013-01-28 12:05:00,
2013-01-28 06:10:00,31.1,28.2,29.84,WNW,303,0.0,3.0,89,0.00,,,0.00,0.00,VWS V14.01,2013-01-28 12:10:00,
2013-01-28 06:15:00,31.1,28.2,29.84,WNW,303,0.0,3.0,89,0.00,,,0.00,0.00,VWS V14.01,2013-01-28 12:15:00,
2013-01-28 06:20:00,31.1,28.2,29.84,WNW,303,1.0,3.0,89,0.00,,,0.00,0.00,VWS V14.01,2013-01-28 12:20:00,
2013-01-28 06:25:00,31.0,28.1,29.84,WNW,303,0.0,3.0,89,0.00,,,0.00,0.00,VWS V14.01,2013-01-28 12:25:00,
2013-01-28 06:30:00,31.0,28.1,29.84,WNW,303,0.0,1.0,89,0.00,,,0.00,0.00,VWS V14.01,2013-01-28 12:30:00,
2013-01-28 06:35:00,31.0,28.1,29.84,WNW,303,0.0,4.0,89,0.00,,,0.00,0.00,VWS V14.01,2013-01-28 12:35:00,
2013-01-28 06:40:00,31.1,28.2,29.84,NW,323,2.0,5.0,89,0.00,,,0.00,0.00,VWS V14.01,2013-01-28 12:40:00,
2013-01-28 06:45:00,31.0,28.1,29.84,NW,323,0.0,5.0,89,0.00,,,0.00,0.00,VWS V14.01,2013-01-28 12:45:00,
2013-01-28 06:50:00,31.0,28.1,29.84,NW,323,1.0,5.0,89,0.00,,,0.00,0.00,VWS V14.01,2013-01-28 12:50:00,
2013-01-28 06:55:00,31.0,28.1,29.85,NW,321,2.0,5.0,89,0.00,,,0.00,0.00,VWS V14.01,2013-01-28 12:55:00,
2013-01-28 07:00:00,31.0,28.1,29.85,NW,316,1.0,1.0,89,0.00,,,0.00,0.00,VWS V14.01,2013-01-28 13:00:00,
2013-01-28 07:05:00,31.0,28.1,29.85,NW,304,0.0,4.0,89,0.00,,,0.00,0.00,VWS V14.01,2013-01-28 13:05:00,
2013-01-28 07:10:00,31.0,28.1,29.85,NW,304,2.0,4.0,89,0.00,,,0.00,0.00,VWS V14.01,2013-01-28 13:10:00,
2013-01-28 07:15:00,31.0,28.1,29.86,WNW,300,2.0,4.0,89,0.00,,,0.00,0.00,VWS V14.01,2013-01-28 13:15:00,
2013-01-28 07:20:00,30.9,28.0,29.86,WNW,294,4.0,4.0,89,0.00,,,0.00,0.00,VWS V14.01,2013-01-28 13:20:00,
2013-01-28 07:25:00,31.0,28.1,29.86,WNW,294,0.0,4.0,89,0.00,,,0.00,0.00,VWS V14.01,2013-01-28 13:25:00,
2013-01-28 07:30:00,30.9,28.0,29.86,WNW,294,2.0,3.0,89,0.00,,,0.00,0.00,VWS V14.01,2013-01-28 13:30:00,
2013-01-28 07:35:00,30.9,28.0,29.86,WNW,294,0.0,3.0,89,0.00,,,0.00,0.00,VWS V14.01,2013-01-28 13:35:00,
2013-01-28 07:40:00,30.8,28.0,29.86,WNW,294,2.0,3.0,89,0.00,,,0.00,0.00,VWS V14.01,2013-01-28 13:40:00,
2013-01-28 07:45:00,30.8,28.0,29.87,WNW,294,2.0,4.0,89,0.00,,,0.00,5.00,VWS V14.01,2013-01-28 13:45:00,
2013-01-28 07:50:00,30.8,28.0,29.87,WNW,294,1.0,4.0,89,0.00,,,0.00,9.00,VWS V14.01,2013-01-28 13:50:00,
2013-01-28 07:55:00,30.8,28.0,29.87,WNW,294,0.0,4.0,89,0.00,,,0.00,9.00,VWS V14.01,2013-01-28 13:55:00,
2013-01-28 08:00:00,30.8,28.0,29.88,WNW,294,2.0,2.0,89,0.00,,,0.00,14.00,VWS V14.01,2013-01-28 14:00:00,
2013-01-28 08:05:00,30.7,27.9,29.88,WNW,294,0.0,2.0,89,0.00,,,0.00,16.00,VWS V14.01,2013-01-28 14:05:00,
2013-01-28 08:10:00,30.7,27.9,29.88,WNW,294,0.0,2.0,89,0.00,,,0.00,21.00,VWS V14.01,2013-01-28 14:10:00,
2013-01-28 08:15:00,30.8,28.0,29.88,WNW,294,0.0,2.0,89,0.00,,,0.00,25.00,VWS V14.01,2013-01-28 14:15:00,
2013-01-28 08:20:00,30.8,28.0,29.88,WNW,294,0.0,2.0,89,0.00,,,0.00,26.00,VWS V14.01,2013-01-28 14:20:00,
2013-01-28 08:25:00,30.8,28.0,29.89,WNW,294,0.0,2.0,89,0.00,,,0.00,26.00,VWS V14.01,2013-01-28 14:25:00,
2013-01-28 08:30:00,30.8,28.0,29.89,WNW,294,0.0,0.0,89,0.00,,,0.00,32.00,VWS V14.01,2013-01-28 14:30:00,
2013-01-28 08:35:00,30.8,28.0,29.89,WNW,294,1.0,2.0,89,0.00,,,0.00,33.00,VWS V14.01,2013-01-28 14:35:00,
2013-01-28 08:40:00,30.9,28.0,29.89,WNW,294,0.0,2.0,89,0.00,,,0.00,35.00,VWS V14.01,2013-01-28 14:40:00,
2013-01-28 08:45:00,30.9,28.0,29.90,WNW,294,0.0,2.0,89,0.00,,,0.00,40.00,VWS V14.01,2013-01-28 14:45:00,
2013-01-28 08:50:00,31.0,28.1,29.90,WNW,294,0.0,2.0,89,0.00,,,0.00,47.00,VWS V14.01,2013-01-28 14:50:00,
2013-01-28 08:55:00,31.0,28.1,29.90,WNW,294,2.0,3.0,89,0.00,,,0.00,49.00,VWS V14.01,2013-01-28 14:55:00,
2013-01-28 09:00:00,31.1,28.2,29.90,WNW,294,1.0,1.0,89,0.00,,,0.00,58.00,VWS V14.01,2013-01-28 15:00:00,
2013-01-28 09:05:00,31.2,28.3,29.89,WNW,294,0.0,1.0,89,0.00,,,0.00,70.00,VWS V14.01,2013-01-28 15:05:00,
2013-01-28 09:10:00,31.4,28.5,29.89,WNW,294,0.0,1.0,89,0.00,,,0.00,79.00,VWS V14.01,2013-01-28 15:10:00,
2013-01-28 09:15:00,31.5,28.6,29.89,WNW,294,0.0,1.0,89,0.00,,,0.00,91.00,VWS V14.01,2013-01-28 15:15:00,
2013-01-28 09:20:00,31.6,28.7,29.89,WNW,294,0.0,1.0,89,0.00,,,0.00,76.00,VWS V14.01,2013-01-28 15:20:00,
2013-01-28 09:25:00,31.7,28.8,29.89,WNW,294,0.0,1.0,89,0.00,,,0.00,95.00,VWS V14.01,2013-01-28 15:25:00,
2013-01-28 09:30:00,31.8,29.2,29.90,WNW,294,1.0,1.0,90,0.00,,,0.00,63.00,VWS V14.01,2013-01-28 15:30:00,
2013-01-28 09:35:00,31.8,29.2,29.90,WNW,294,0.0,1.0,90,0.00,,,0.00,95.00,VWS V14.01,2013-01-28 15:35:00,
2013-01-28 09:40:00,31.9,29.3,29.89,WNW,294,0.0,1.0,90,0.00,,,0.00,77.00,VWS V14.01,2013-01-28 15:40:00,
2013-01-28 09:45:00,32.2,29.6,29.89,WNW,294,0.0,1.0,90,0.00,,,0.00,120.00,VWS V14.01,2013-01-28 15:45:00,
2013-01-28 09:50:00,32.5,29.9,29.88,WNW,294,0.0,1.0,90,0.00,,,0.00,109.00,VWS V14.01,2013-01-28 15:50:00,
2013-01-28 09:55:00,32.4,29.8,29.88,WNW,294,0.0,1.0,90,0.00,,,0.00,116.00,VWS V14.01,2013-01-28 15:55:00,
2013-01-28 10:00:00,32.5,29.9,29.88,WNW,294,0.0,0.0,90,0.00,,OVC010,0.00,123.00,VWS V14.01,2013-01-28 16:00:00,
2013-01-28 10:05:00,32.3,29.7,29.88,WNW,294,0.0,0.0,90,0.00,,OVC010,0.00,105.00,VWS V14.01,2013-01-28 16:05:00,
2013-01-28 10:10:00,32.1,29.5,29.89,WNW,294,0.0,1.0,90,0.00,,OVC010,0.00,125.00,VWS V14.01,2013-01-28 16:10:00,
2013-01-28 10:15:00,32.3,29.7,29.89,WNW,294,0.0,2.0,90,0.00,,OVC010,0.00,135.00,VWS V14.01,2013-01-28 16:15:00,
2013-01-28 10:20:00,32.4,29.8,29.90,WNW,294,0.0,2.0,90,0.00,,OVC010,0.00,127.00,VWS V14.01,2013-01-28 16:20:00,
2013-01-28 10:25:00,32.5,29.6,29.90,WNW,294,1.0,3.0,89,0.00,,OVC010,0.00,120.00,VWS V14.01,2013-01-28 16:25:00,
2013-01-28 10:30:00,32.2,29.0,29.90,WNW,294,2.0,2.0,88,0.00,,OVC010,0.00,113.00,VWS V14.01,2013-01-28 16:30:00,
2013-01-28 10:35:00,32.0,28.9,29.91,WNW,294,0.0,2.0,88,0.00,,OVC010,0.00,123.00,VWS V14.01,2013-01-28 16:35:00,
2013-01-28 10:40:00,32.2,29.3,29.91,WNW,294,0.0,2.0,89,0.00,,OVC010,0.00,144.00,VWS V14.01,2013-01-28 16:40:00,
2013-01-28 10:45:00,32.4,29.2,29.90,WNW,294,0.0,2.0,88,0.00,,OVC010,0.00,163.00,VWS V14.01,2013-01-28 16:45:00,
2013-01-28 10:50:00,32.5,29.1,29.91,WNW,294,0.0,2.0,87,0.00,,OVC010,0.00,142.00,VWS V14.01,2013-01-28 16:50:00,
2013-01-28 10:55:00,32.6,29.5,29.91,WNW,294,0.0,2.0,88,0.00,,OVC010,0.00,132.00,VWS V14.01,2013-01-28 16:55:00,
2013-01-28 11:00:00,32.9,30.0,29.91,WNW,294,0.0,0.0,89,0.00,,OVC008,0.00,135.00,VWS V14.01,2013-01-28 17:00:00,
2013-01-28 11:05:00,33.0,29.8,29.91,WNW,294,0.0,1.0,88,0.00,,OVC008,0.00,120.00,VWS V14.01,2013-01-28 17:05:00,
2013-01-28 11:10:00,32.8,29.6,29.90,WNW,294,0.0,2.0,88,0.00,,OVC008,0.00,155.00,VWS V14.01,2013-01-28 17:10:00,
2013-01-28 11:15:00,32.8,29.6,29.90,WNW,294,0.0,2.0,88,0.00,,OVC008,0.00,167.00,VWS V14.01,2013-01-28 17:15:00,
2013-01-28 11:21:00,32.8,29.6,29.91,WNW,294,2.0,2.0,88,0.00,,OVC008,0.00,174.00,VWS V14.01,2013-01-28 17:21:00,
2013-01-28 11:26:00,32.8,29.6,29.91,SSW,211,1.0,3.0,88,0.00,,OVC008,0.00,162.00,VWS V14.01,2013-01-28 17:26:00,
2013-01-28 11:31:00,32.6,29.5,29.90,SSW,211,0.0,0.0,88,0.00,,OVC008,0.00,149.00,VWS V14.01,2013-01-28 17:31:00,
2013-01-28 11:36:00,32.5,29.4,29.91,SSW,211,3.0,3.0,88,0.00,,OVC008,0.00,125.00,VWS V14.01,2013-01-28 17:36:00,
2013-01-28 11:41:00,32.5,29.4,29.91,SSW,212,1.0,3.0,88,0.00,,OVC008,0.00,135.00,VWS V14.01,2013-01-28 17:41:00,
2013-01-28 11:46:00,32.5,29.4,29.91,SSW,212,1.0,3.0,88,0.00,,OVC008,0.00,153.00,VWS V14.01,2013-01-28 17:46:00,
2013-01-28 11:51:00,32.6,29.5,29.91,SSW,212,0.0,3.0,88,0.00,,OVC008,0.00,139.00,VWS V14.01,2013-01-28 17:51:00,
2013-01-28 11:56:00,32.7,29.8,29.91,SSW,212,2.0,3.0,89,0.00,,OVC008,0.00,125.00,VWS V14.01,2013-01-28 17:56:00,
2013-01-28 12:01:00,32.7,29.5,29.91,SSW,212,0.0,1.0,88,0.00,,OVC008,0.00,105.00,VWS V14.01,2013-01-28 18:01:00,
2013-01-28 12:06:00,32.7,29.8,29.90,SSW,196,2.0,4.0,89,0.00,,OVC008,0.00,127.00,VWS V14.01,2013-01-28 18:06:00,
2013-01-28 12:11:00,32.6,29.7,29.90,South,183,3.0,4.0,89,0.00,,OVC008,0.00,120.00,VWS V14.01,2013-01-28 18:11:00,
2013-01-28 12:16:00,32.5,29.6,29.91,SW,219,4.0,5.0,89,0.00,,OVC008,0.00,128.00,VWS V14.01,2013-01-28 18:16:00,
2013-01-28 12:21:00,32.5,29.6,29.90,SSW,208,3.0,5.0,89,0.00,,OVC008,0.00,158.00,VWS V14.01,2013-01-28 18:21:00,
2013-01-28 12:26:00,32.5,29.6,29.90,SW,215,3.0,5.0,89,0.00,,OVC008,0.00,148.00,VWS V14.01,2013-01-28 18:26:00,
2013-01-28 12:31:00,32.4,29.2,29.90,SSW,194,4.0,6.0,88,0.00,,OVC008,0.00,181.00,VWS V14.01,2013-01-28 18:31:00,
2013-01-28 12:36:00,32.4,29.5,29.90,SSW,200,3.0,6.0,89,0.00,,OVC008,0.00,158.00,VWS V14.01,2013-01-28 18:36:00,
2013-01-28 12:41:00,32.4,29.5,29.90,SW,216,3.0,6.0,89,0.00,,OVC008,0.00,132.00,VWS V14.01,2013-01-28 18:41:00,
2013-01-28 12:46:00,32.4,29.2,29.89,SSE,168,2.0,6.0,88,0.00,,OVC008,0.00,123.00,VWS V14.01,2013-01-28 18:46:00,
2013-01-28 12:51:00,32.4,29.5,29.89,SSW,205,4.0,6.0,89,0.00,,OVC008,0.00,123.00,VWS V14.01,2013-01-28 18:51:00,
2013-01-28 12:56:00,32.3,29.1,29.89,South,177,2.0,6.0,88,0.00,,OVC008,0.00,139.00,VWS V14.01,2013-01-28 18:56:00,
2013-01-28 13:01:00,32.3,29.1,29.88,South,183,2.0,5.0,88,0.00,,OVC008,0.00,192.00,VWS V14.01,2013-01-28 19:01:00,
2013-01-28 13:06:00,32.5,29.6,29.87,South,183,2.0,5.0,89,0.00,,OVC008,0.00,234.00,VWS V14.01,2013-01-28 19:06:00,
2013-01-28 13:11:00,32.5,29.4,29.87,South,183,0.0,5.0,88,0.00,,OVC008,0.00,183.00,VWS V14.01,2013-01-28 19:11:00,
2013-01-28 13:16:00,32.6,29.7,29.87,South,182,0.0,5.0,89,0.00,,OVC008,0.00,169.00,VWS V14.01,2013-01-28 19:16:00,
2013-01-28 13:21:00,32.8,29.9,29.87,SSE,157,0.0,5.0,89,0.00,,OVC008,0.00,151.00,VWS V14.01,2013-01-28 19:21:00,
2013-01-28 13:26:00,33.1,30.2,29.87,SSE,157,0.0,5.0,89,0.00,,OVC008,0.00,179.00,VWS V14.01,2013-01-28 19:26:00,
2013-01-28 13:31:00,33.1,30.2,29.86,SSE,157,0.0,1.0,89,0.00,,OVC008,0.00,127.00,VWS V14.01,2013-01-28 19:31:00,
2013-01-28 13:36:00,33.0,29.8,29.86,SSE,157,0.0,1.0,88,0.00,,OVC008,0.00,156.00,VWS V14.01,2013-01-28 19:36:00,
2013-01-28 13:41:00,33.1,30.2,29.86,SSE,157,0.0,1.0,89,0.00,,OVC008,0.00,176.00,VWS V14.01,2013-01-28 19:41:00,
2013-01-28 13:46:00,33.2,30.3,29.86,SSE,157,0.0,1.0,89,0.00,,OVC008,0.00,260.00,VWS V14.01,2013-01-28 19:46:00,
2013-01-28 13:51:00,33.4,30.5,29.86,SSE,157,0.0,1.0,89,0.00,,OVC008,0.00,221.00,VWS V14.01,2013-01-28 19:51:00,
2013-01-28 13:56:00,33.4,30.5,29.86,SSE,157,0.0,1.0,89,0.00,,OVC008,0.00,211.00,VWS V14.01,2013-01-28 19:56:00,
2013-01-28 14:01:00,33.7,30.8,29.86,SSE,157,2.0,2.0,89,0.00,,OVC008,0.00,209.00,VWS V14.01,2013-01-28 20:01:00,
2013-01-28 14:06:00,33.6,30.4,29.86,SSE,157,0.0,2.0,88,0.00,,OVC008,0.00,178.00,VWS V14.01,2013-01-28 20:06:00,
2013-01-28 14:11:00,33.4,30.2,29.86,SSE,157,0.0,2.0,88,0.00,,OVC008,0.00,151.00,VWS V14.01,2013-01-28 20:11:00,
2013-01-28 14:16:00,33.3,30.1,29.86,SSE,157,1.0,3.0,88,0.00,,OVC008,0.00,149.00,VWS V14.01,2013-01-28 20:16:00,
2013-01-28 14:21:00,33.2,30.3,29.87,South,169,0.0,4.0,89,0.00,,OVC008,0.00,121.00,VWS V14.01,2013-01-28 20:21:00,
2013-01-28 14:26:00,33.0,29.8,29.87,South,187,5.0,6.0,88,0.00,,OVC008,0.00,102.00,VWS V14.01,2013-01-28 20:26:00,
2013-01-28 14:31:00,33.0,30.1,29.86,SSE,147,0.0,1.0,89,0.00,,OVC008,0.00,123.00,VWS V14.01,2013-01-28 20:31:00,
2013-01-28 14:36:00,33.0,30.1,29.86,South,180,3.0,5.0,89,0.00,,OVC008,0.00,125.00,VWS V14.01,2013-01-28 20:36:00,
2013-01-28 14:41:00,32.9,30.0,29.87,South,180,2.0,5.0,89,0.00,,OVC008,0.00,104.00,VWS V14.01,2013-01-28 20:41:00,
2013-01-28 14:46:00,33.0,30.1,29.87,SE,141,1.0,5.0,89,0.00,,OVC008,0.00,104.00,VWS V14.01,2013-01-28 20:46:00,
2013-01-28 14:51:00,33.0,30.1,29.87,SE,141,0.0,5.0,89,0.00,,OVC008,0.00,90.00,VWS V14.01,2013-01-28 20:51:00,
2013-01-28 14:56:00,33.1,30.2,29.87,SE,141,0.0,5.0,89,0.00,,OVC008,0.00,90.00,VWS V14.01,2013-01-28 20:56:00,
2013-01-28 15:01:00,33.0,30.1,29.88,SSW,199,6.0,6.0,89,0.00,,OVC008,0.00,88.00,VWS V14.01,2013-01-28 21:01:00,
2013-01-28 15:06:00,32.8,29.9,29.88,South,190,3.0,6.0,89,0.00,,OVC008,0.00,79.00,VWS V14.01,2013-01-28 21:06:00,
2013-01-28 15:11:00,32.9,30.0,29.89,South,190,0.0,6.0,89,0.00,,OVC008,0.00,69.00,VWS V14.01,2013-01-28 21:11:00,
2013-01-28 15:16:00,32.8,29.9,29.89,SSW,206,4.0,6.0,89,0.00,,OVC008,0.00,67.00,VWS V14.01,2013-01-28 21:16:00,
2013-01-28 15:21:00,32.8,29.9,29.89,SSW,206,0.0,6.0,89,0.00,,OVC006,0.00,62.00,VWS V14.01,2013-01-28 21:21:00,
2013-01-28 15:26:00,32.9,30.3,29.88,SSW,206,0.0,6.0,90,0.00,,OVC006,0.00,62.00,VWS V14.01,2013-01-28 21:26:00,
2013-01-28 15:31:00,33.0,30.4,29.89,ESE,108,0.0,0.0,90,0.00,,OVC006,0.00,49.00,VWS V14.01,2013-01-28 21:31:00,
2013-01-28 15:36:00,33.0,30.4,29.89,ESE,108,0.0,0.0,90,0.00,,OVC006,0.00,46.00,VWS V14.01,2013-01-28 21:36:00,
2013-01-28 15:41:00,32.9,30.0,29.89,SSE,159,0.0,2.0,89,0.00,,OVC006,0.00,53.00,VWS V14.01,2013-01-28 21:41:00,
2013-01-28 15:46:00,33.0,30.4,29.88,SSE,159,0.0,2.0,90,0.00,,OVC006,0.00,53.00,VWS V14.01,2013-01-28 21:46:00,
2013-01-28 15:51:00,32.9,30.3,29.88,SSE,158,0.0,2.0,90,0.00,,OVC006,0.00,44.00,VWS V14.01,2013-01-28 21:51:00,
2013-01-28 15:56:00,32.9,30.3,29.88,SSE,159,0.0,2.0,90,0.00,,OVC006,0.00,33.00,VWS V14.01,2013-01-28 21:56:00,
2013-01-28 16:01:00,32.8,30.2,29.87,SSE,159,0.0,0.0,90,0.00,,OVC006,0.00,30.00,VWS V14.01,2013-01-28 22:01:00,
2013-01-28 16:06:00,32.8,30.2,29.87,SSE,158,0.0,1.0,90,0.00,,OVC006,0.00,28.00,VWS V14.01,2013-01-28 22:06:00,
2013-01-28 16:11:00,32.8,30.2,29.87,SSE,159,0.0,2.0,90,0.00,,OVC006,0.00,28.00,VWS V14.01,2013-01-28 22:11:00,
2013-01-28 16:16:00,32.8,30.2,29.87,SSE,159,1.0,2.0,90,0.00,,OVC006,0.00,26.00,VWS V14.01,2013-01-28 22:16:00,
2013-01-28 16:21:00,32.8,30.2,29.87,SSE,159,0.0,2.0,90,0.00,,,0.00,23.00,VWS V14.01,2013-01-28 22:21:00,
2013-01-28 16:26:00,32.8,30.2,29.87,SSE,158,0.0,2.0,90,0.00,,,0.00,19.00,VWS V14.01,2013-01-28 22:26:00,
2013-01-28 16:31:00,32.7,30.1,29.86,SE,141,2.0,3.0,90,0.00,,,0.00,21.00,VWS V14.01,2013-01-28 22:31:00,
2013-01-28 16:36:00,32.6,30.0,29.86,SE,131,2.0,4.0,90,0.00,,,0.00,12.00,VWS V14.01,2013-01-28 22:36:00,
2013-01-28 16:41:00,32.6,30.0,29.86,SE,125,1.0,4.0,90,0.00,,,0.00,9.00,VWS V14.01,2013-01-28 22:41:00,
2013-01-28 16:46:00,32.6,30.0,29.86,SE,142,3.0,4.0,90,0.00,,,0.00,5.00,VWS V14.01,2013-01-28 22:46:00,
2013-01-28 16:51:00,32.6,30.0,29.86,SE,138,0.0,4.0,90,0.00,,,0.00,0.00,VWS V14.01,2013-01-28 22:51:00,
2013-01-28 16:56:00,32.6,30.0,29.86,SE,138,0.0,4.0,90,0.00,,,0.00,0.00,VWS V14.01,2013-01-28 22:56:00,
2013-01-28 17:01:00,32.6,30.0,29.86,ESE,118,2.0,3.0,90,0.00,,,0.00,0.00,VWS V14.01,2013-01-28 23:01:00,
2013-01-28 17:06:00,32.7,30.1,29.86,SE,133,1.0,4.0,90,0.00,,,0.00,0.00,VWS V14.01,2013-01-28 23:06:00,
2013-01-28 17:11:00,32.7,30.1,29.86,SE,133,1.0,4.0,90,0.00,,,0.00,0.00,VWS V14.01,2013-01-28 23:11:00,
2013-01-28 17:16:00,32.6,30.0,29.86,SE,126,5.0,6.0,90,0.00,,,0.00,0.00,VWS V14.01,2013-01-28 23:16:00,
2013-01-28 17:21:00,32.6,30.0,29.85,SE,137,2.0,6.0,90,0.00,,,0.00,0.00,VWS V14.01,2013-01-28 23:21:00,
2013-01-28 17:26:00,32.6,30.0,29.85,ESE,121,3.0,6.0,90,0.00,,,0.00,0.00,VWS V14.01,2013-01-28 23:26:00,
2013-01-28 17:31:00,32.6,30.0,29.85,SE,142,0.0,4.0,90,0.00,,,0.00,0.00,VWS V14.01,2013-01-28 23:31:00,
2013-01-28 17:36:00,32.6,30.0,29.85,SE,126,1.0,4.0,90,0.00,,,0.00,0.00,VWS V14.01,2013-01-28 23:36:00,
2013-01-28 17:41:00,32.6,30.0,29.85,ESE,109,1.0,4.0,90,0.00,,,0.00,0.00,VWS V14.01,2013-01-28 23:41:00,
2013-01-28 17:46:00,32.6,30.0,29.86,SE,144,3.0,4.0,90,0.00,,,0.00,0.00,VWS V14.01,2013-01-28 23:46:00,
2013-01-28 17:51:00,32.6,30.0,29.86,SE,133,0.0,7.0,90,0.00,,,0.00,0.00,VWS V14.01,2013-01-28 23:51:00,
2013-01-28 17:56:00,32.6,30.0,29.86,ESE,119,1.0,7.0,90,0.00,,,0.00,0.00,VWS V14.01,2013-01-28 23:56:00,
2013-01-28 18:01:00,32.6,30.0,29.86,SE,136,2.0,4.0,90,0.00,,OVC006,0.00,0.00,VWS V14.01,2013-01-29 00:01:00,
2013-01-28 18:06:00,32.6,30.0,29.86,SE,135,2.0,4.0,90,0.00,,OVC006,0.00,0.00,VWS V14.01,2013-01-29 00:06:00,
2013-01-28 18:11:00,32.6,30.0,29.86,SE,131,1.0,4.0,90,0.00,,OVC006,0.00,0.00,VWS V14.01,2013-01-29 00:11:00,
2013-01-28 18:16:00,32.6,30.0,29.86,ESE,111,2.0,4.0,90,0.00,,OVC006,0.00,0.00,VWS V14.01,2013-01-29 00:16:00,
2013-01-28 18:21:00,32.6,30.0,29.86,ESE,121,2.0,5.0,90,0.00,,OVC006,0.00,0.00,VWS V14.01,2013-01-29 00:21:00,
2013-01-28 18:26:00,32.6,30.0,29.86,SE,126,0.0,5.0,90,0.00,,OVC006,0.00,0.00,VWS V14.01,2013-01-29 00:26:00,
2013-01-28 18:31:00,32.6,30.0,29.85,ENE,63,0.0,3.0,90,0.00,,OVC006,0.00,0.00,VWS V14.01,2013-01-29 00:31:00,
2013-01-28 18:36:00,32.6,30.0,29.85,East,86,1.0,3.0,90,0.00,,OVC006,0.00,0.00,VWS V14.01,2013-01-29 00:36:00,
2013-01-28 18:41:00,32.7,30.1,29.85,SSE,149,2.0,3.0,90,0.00,,,0.00,0.00,VWS V14.01,2013-01-29 00:41:00,
2013-01-28 18:46:00,32.7,30.1,29.85,ESE,119,0.0,3.0,90,0.00,,,0.00,0.00,VWS V14.01,2013-01-29 00:46:00,
2013-01-28 18:51:00,32.7,30.1,29.84,ESE,119,0.0,3.0,90,0.00,,,0.00,0.00,VWS V14.01,2013-01-29 00:51:00,
2013-01-28 18:57:00,32.8,30.2,29.84,ESE,121,3.0,5.0,90,0.00,,,0.00,0.00,VWS V14.01,2013-01-29 00:57:00,
2013-01-28 19:02:00,32.7,30.1,29.84,ESE,118,2.0,4.0,90,0.00,,,0.00,0.00,VWS V14.01,2013-01-29 01:02:00,
2013-01-28 19:07:00,32.8,30.2,29.83,ESE,115,0.0,4.0,90,0.00,,,0.00,0.00,VWS V14.01,2013-01-29 01:07:00,
2013-01-28 19:12:00,32.8,30.2,29.83,SSE,147,1.0,4.0,90,0.00,,,0.00,0.00,VWS V14.01,2013-01-29 01:12:00,
2013-01-28 19:17:00,32.8,30.2,29.83,East,97,2.0,4.0,90,0.00,,,0.00,0.00,VWS V14.01,2013-01-29 01:17:00,
2013-01-28 19:22:00,32.8,29.9,29.83,ESE,116,2.0,5.0,89,0.00,,,0.00,0.00,VWS V14.01,2013-01-29 01:22:00,
2013-01-28 19:27:00,32.8,30.2,29.83,SE,144,1.0,5.0,90,0.00,,,0.00,0.00,VWS V14.01,2013-01-29 01:27:00,
2013-01-28 19:32:00,32.8,30.2,29.82,ESE,113,0.0,2.0,90,0.00,,,0.00,0.00,VWS V14.01,2013-01-29 01:32:00,
2013-01-28 19:37:00,32.7,30.1,29.82,ESE,104,0.0,2.0,90,0.00,,,0.00,0.00,VWS V14.01,2013-01-29 01:37:00,
2013-01-28 19:42:00,32.7,30.1,29.82,ESE,116,0.0,4.0,90,0.00,,,0.00,0.00,VWS V14.01,2013-01-29 01:42:00,
2013-01-28 19:47:00,32.6,30.0,29.82,ESE,121,2.0,4.0,90,0.00,,,0.00,0.00,VWS V14.01,2013-01-29 01:47:00,
2013-01-28 19:52:00,32.6,30.0,29.82,SE,125,1.0,4.0,90,0.00,,,0.00,0.00,VWS V14.01,2013-01-29 01:52:00,
2013-01-28 19:57:00,32.6,30.0,29.82,ESE,117,1.0,4.0,90,0.00,,,0.00,0.00,VWS V14.01,2013-01-29 01:57:00,
2013-01-28 20:02:00,32.6,29.7,29.82,SE,130,3.0,3.0,89,0.00,,,0.00,0.00,VWS V14.01,2013-01-29 02:02:00,
2013-01-28 20:07:00,32.6,29.7,29.83,ESE,115,0.0,5.0,89,0.00,,,0.00,0.00,VWS V14.01,2013-01-29 02:07:00,
2013-01-28 20:12:00,32.6,29.7,29.83,ESE,122,2.0,5.0,89,0.00,,,0.00,0.00,VWS V14.01,2013-01-29 02:12:00,
2013-01-28 20:17:00,32.7,29.8,29.83,SE,126,0.0,5.0,89,0.00,,,0.00,0.00,VWS V14.01,2013-01-29 02:17:00,
2013-01-28 20:22:00,32.7,29.8,29.84,ESE,111,0.0,5.0,89,0.00,,,0.00,0.00,VWS V14.01,2013-01-29 02:22:00,
2013-01-28 20:27:00,32.7,29.8,29.83,ESE,123,1.0,5.0,89,0.00,,,0.00,0.00,VWS V14.01,2013-01-29 02:27:00,
2013-01-28 20:32:00,32.7,29.8,29.82,SE,125,0.0,3.0,89,0.00,,,0.00,0.00,VWS V14.01,2013-01-29 02:32:00,
2013-01-28 20:37:00,32.6,29.7,29.83,SE,131,2.0,4.0,89,0.00,,,0.00,0.00,VWS V14.01,2013-01-29 02:37:00,
2013-01-28 20:42:00,32.7,29.8,29.83,SE,141,0.0,4.0,89,0.00,,,0.00,0.00,VWS V14.01,2013-01-29 02:42:00,
2013-01-28 20:47:00,32.7,29.8,29.83,SE,127,3.0,4.0,89,0.00,,,0.00,0.00,VWS V14.01,2013-01-29 02:47:00,
2013-01-28 20:52:00,32.6,29.7,29.82,ESE,105,0.0,4.0,89,0.00,,,0.00,0.00,VWS V14.01,2013-01-29 02:52:00,
2013-01-28 20:57:00,32.6,29.7,29.81,SE,128,1.0,4.0,89,0.00,,,0.00,0.00,VWS V14.01,2013-01-29 02:57:00,
2013-01-28 21:02:00,32.6,29.7,29.82,SSE,148,1.0,3.0,89,0.00,,,0.00,0.00,VWS V14.01,2013-01-29 03:02:00,
2013-01-28 21:07:00,32.6,29.7,29.81,ESE,110,3.0,3.0,89,0.00,,,0.00,0.00,VWS V14.01,2013-01-29 03:07:00,
2013-01-28 21:12:00,32.6,29.7,29.81,ESE,112,1.0,3.0,89,0.00,,,0.00,0.00,VWS V14.01,2013-01-29 03:12:00,
2013-01-28 21:17:00,32.6,29.7,29.81,SSE,147,2.0,3.0,89,0.00,,,0.00,0.00,VWS V14.01,2013-01-29 03:17:00,
2013-01-28 21:22:00,32.6,29.7,29.80,ESE,105,0.0,3.0,89,0.00,,,0.00,0.00,VWS V14.01,2013-01-29 03:22:00,
2013-01-28 21:27:00,32.6,29.7,29.80,ESE,105,0.0,3.0,89,0.00,,,0.00,0.00,VWS V14.01,2013-01-29 03:27:00,
2013-01-28 21:32:00,32.6,29.7,29.80,ESE,105,2.0,4.0,89,0.00,,,0.00,0.00,VWS V14.01,2013-01-29 03:32:00,
2013-01-28 21:37:00,32.6,29.7,29.81,ESE,115,0.0,4.0,89,0.00,,,0.00,0.00,VWS V14.01,2013-01-29 03:37:00,
2013-01-28 21:42:00,32.6,29.7,29.81,ESE,107,1.0,4.0,89,0.00,,,0.00,0.00,VWS V14.01,2013-01-29 03:42:00,
2013-01-28 21:47:00,32.6,29.7,29.80,East,100,1.0,4.0,89,0.00,,,0.00,0.00,VWS V14.01,2013-01-29 03:47:00,
2013-01-28 21:52:00,32.6,29.7,29.80,ESE,107,0.0,4.0,89,0.00,,,0.00,0.00,VWS V14.01,2013-01-29 03:52:00,
2013-01-28 21:57:00,32.5,29.6,29.79,ESE,112,1.0,5.0,89,0.00,,,0.00,0.00,VWS V14.01,2013-01-29 03:57:00,
2013-01-28 22:02:00,32.5,29.6,29.79,East,92,2.0,3.0,89,0.00,,,0.00,0.00,VWS V14.01,2013-01-29 04:02:00,
2013-01-28 22:07:00,32.5,29.6,29.78,East,81,1.0,3.0,89,0.00,,,0.00,0.00,VWS V14.01,2013-01-29 04:07:00,
2013-01-28 22:12:00,32.5,29.6,29.77,East,81,3.0,3.0,89,0.00,,,0.00,0.00,VWS V14.01,2013-01-29 04:12:00,
2013-01-28 22:17:00,32.5,29.6,29.77,ENE,75,0.0,3.0,89,0.00,,,0.00,0.00,VWS V14.01,2013-01-29 04:17:00,
2013-01-28 22:22:00,32.4,29.5,29.75,ENE,75,2.0,3.0,89,0.00,,,0.00,0.00,VWS V14.01,2013-01-29 04:22:00,
2013-01-28 22:27:00,32.4,29.5,29.75,ESE,111,0.0,4.0,89,0.00,,,0.00,0.00,VWS V14.01,2013-01-29 04:27:00,
2013-01-28 22:32:00,32.4,29.5,29.73,East,82,0.0,2.0,89,0.00,,,0.00,0.00,VWS V14.01,2013-01-29 04:32:00,
2013-01-28 22:37:00,32.4,29.5,29.72,East,98,1.0,5.0,89,0.00,,,0.00,0.00,VWS V14.01,2013-01-29 04:37:00,
2013-01-28 22:42:00,32.4,29.5,29.72,ESE,113,2.0,5.0,89,0.00,,,0.00,0.00,VWS V14.01,2013-01-29 04:42:00,
2013-01-28 22:47:00,32.3,29.4,29.71,ENE,67,2.0,5.0,89,0.00,,,0.00,0.00,VWS V14.01,2013-01-29 04:47:00,
2013-01-28 22:52:00,32.3,29.4,29.71,ENE,74,2.0,5.0,89,0.00,,,0.00,0.00,VWS V14.01,2013-01-29 04:52:00,
2013-01-28 22:57:00,32.3,29.4,29.71,East,82,1.0,5.0,89,0.00,,,0.00,0.00,VWS V14.01,2013-01-29 04:57:00,
2013-01-28 23:00:00,32.3,29.4,29.71,East,89,3.0,3.0,89,0.00,,,0.00,0.00,VWS V14.01,2013-01-29 05:00:00,
2013-01-28 23:01:00,32.3,29.4,29.71,ESE,113,2.0,4.0,89,0.00,,,0.00,0.00,VWS V14.01,2013-01-29 05:01:00,
2013-01-28 23:02:00,32.3,29.4,29.71,ESE,104,2.0,4.0,89,0.00,,,0.00,0.00,VWS V14.01,2013-01-29 05:02:00,
2013-01-28 23:03:00,32.3,29.4,29.71,East,98,3.0,4.0,89,0.00,,,0.00,0.00,VWS V14.01,2013-01-29 05:03:00,
2013-01-28 23:08:00,32.3,29.4,29.70,ENE,71,3.0,4.0,89,0.00,,,0.00,0.00,VWS V14.01,2013-01-29 05:08:00,
2013-01-28 23:13:00,32.3,29.4,29.70,ESE,114,1.0,4.0,89,0.00,,,0.00,0.00,VWS V14.01,2013-01-29 05:13:00,
2013-01-28 23:18:00,32.3,29.4,29.69,SSE,152,2.0,5.0,89,0.00,,,0.00,0.00,VWS V14.01,2013-01-29 05:18:00,
2013-01-28 23:23:00,32.4,29.5,29.70,ESE,113,3.0,6.0,89,0.00,,,0.00,0.00,VWS V14.01,2013-01-29 05:23:00,
2013-01-28 23:28:00,32.5,29.6,29.71,ENE,71,0.0,7.0,89,0.00,,,0.00,0.00,VWS V14.01,2013-01-29 05:28:00,
2013-01-28 23:33:00,32.6,29.7,29.70,East,84,2.0,5.0,89,0.00,,,0.00,0.00,VWS V14.01,2013-01-29 05:33:00,
2013-01-28 23:38:00,32.8,29.9,29.70,SE,136,0.0,6.0,89,0.00,,,0.00,0.00,VWS V14.01,2013-01-29 05:38:00,
2013-01-28 23:43:00,32.9,29.7,29.70,ENE,65,0.0,6.0,88,0.00,,,0.00,0.00,VWS V14.01,2013-01-29 05:43:00,
2013-01-28 23:48:00,33.0,29.8,29.69,ESE,115,2.0,7.0,88,0.00,,,0.00,0.00,VWS V14.01,2013-01-29 05:48:00,
2013-01-28 23:53:00,33.1,29.9,29.70,SE,128,0.0,7.0,88,0.00,,,0.00,0.00,VWS V14.01,2013-01-29 05:53:00,
2013-01-28 23:58:00,33.2,30.3,29.68,East,93,2.0,7.0,89,0.00,,,0.00,0.00,VWS V14.01,2013-01-29 05:58:00,